User: anonymous   Login
Location: Unspecified
(0.0000°N, 0.0000°E)
Time: 16:17:51
(UTC+02:00)
Language:

ITAMSAT 1 - Orbit

View from above orbital plane
View from above orbital plane
View from above satellite
View from above satellite

Ground track
Ground track

The orbit data is extracted from the following two-line orbital elements,

1 22826U 93061D   15247.09420543  .00000057  00000-0  39317-4 0  9994
2 22826  98.7101 197.4106 0010096  71.4839 288.7439 14.30219386144360
Epoch (UTC): 04 September 2015 02:15:39
Eccentricity: 0.0010096
inclination: 98.7101°
perigee height: 784 km
apogee height: 798 km
right ascension of ascending node: 197.4106°
argument of perigee: 71.4839°
revolutions per day: 14.30219386
mean anomaly at epoch: 288.7439°
orbit number at epoch: 14436

The dashed part of the orbit path shows where the satellite is in the earth's shadow,  

DLR